Moriarty, NM

3:09 AM MDT on May 27, 2018 (GMT -0600)
Moriarty

Weather History for K0E0 - January, 2013

Change the Weather History Date:

Wednesday, January 9, 2013

  Actual Average (KABQ) Record (KABQ)
Temperature  
Mean Temperature 31 °F -  
Max Temperature 51 °F 45 °F 62 °F (1916)
Min Temperature 11 °F 21 °F -14 °F (1913)
Degree Days  
Heating Degree Days 34    
Moisture  
Dew Point 10 °F    
Average Humidity 51    
Maximum Humidity 79    
Minimum Humidity 18    
Precipitation  
Precipitation 0.00 in - - ()
Sea Level Pressure  
Sea Level Pressure 30.29 in    
Wind  
Wind Speed 5 mph (North)    
Max Wind Speed 9 mph    
Max Gust Speed 9 mph    
Visibility 10 miles    
Events      
Averages and records for this station are not official NWS values.
T = Trace of Precipitation, MM = Missing Value Source: NWS Daily Summary

Daily Weather History Graph

Daily Weather History Graph

Search for Another Location

Airport or City:

Astronomy

Jan. 09, 2013 Rise Set
Actual Time 7:12 AM MST 5:10 PM MST
Civil Twilight 6:44 AM MST 5:38 PM MST
Nautical Twilight 6:13 AM MST 6:09 PM MST
Astronomical Twilight 5:42 AM MST 6:40 PM MST
Moon 4:54 AM MST (1/9) 3:15 PM MST (1/9)
Length of Visible Light 10h 53m
Length of Day
9h 57m
Waning Crescent, 6% of the Moon is Illuminated
Jan 9
Waning Crescent
Jan 11
New
Jan 18
First Quarter
Jan 26
Full
Feb 3
Last Quarter

Hourly Weather History & Observations

Time (MST) Temp. Windchill Dew Point Humidity Pressure Visibility Wind Dir Wind Speed Gust Speed Precip Events Conditions
12:15 AM 18.0 °F 12.7 °F 6.8 °F 62% 30.26 in 10.0 mi North 3.5 mph - N/A   Clear
12:35 AM 19.2 °F 12.5 °F 7.2 °F 59% 30.27 in 10.0 mi NNE 4.6 mph - N/A   Clear
12:55 AM 13.1 °F 4.0 °F 3.6 °F 66% 30.28 in 10.0 mi NE 5.8 mph - N/A   Clear
1:15 AM 16.0 °F 8.8 °F 6.4 °F 66% 30.28 in 10.0 mi North 4.6 mph - N/A   Clear
1:35 AM 13.8 °F 6.2 °F 4.8 °F 67% 30.28 in 10.0 mi NNW 4.6 mph - N/A   Clear
1:55 AM 15.6 °F 7.0 °F 6.6 °F 68% 30.28 in 10.0 mi NW 5.8 mph - N/A   Clear
2:15 AM 14.4 °F 5.5 °F 6.1 °F 70% 30.28 in 10.0 mi North 5.8 mph - N/A   Clear
2:35 AM 14.0 °F 3.9 °F 6.3 °F 71% 30.27 in 10.0 mi NW 6.9 mph - N/A   Clear
2:55 AM 16.0 °F 7.4 °F 8.1 °F 71% 30.28 in 10.0 mi NNW 5.8 mph - N/A   Clear
3:15 AM 15.1 °F 6.4 °F 7.2 °F 71% 30.29 in 10.0 mi SW 5.8 mph - N/A   Clear
3:35 AM 15.4 °F - 7.5 °F 71% 30.31 in 10.0 mi Calm Calm - N/A   Clear
3:55 AM 15.6 °F - 7.2 °F 69% 30.31 in 10.0 mi Calm Calm - N/A   Clear
4:15 AM 16.7 °F 9.6 °F 8.2 °F 69% 30.32 in 10.0 mi West 4.6 mph - N/A   Clear
4:35 AM 15.4 °F - 7.0 °F 69% 30.33 in 10.0 mi Calm Calm - N/A   Clear
4:55 AM 12.0 °F 4.1 °F 5.4 °F 75% 30.33 in 10.0 mi NNW 4.6 mph - N/A   Clear
5:15 AM 11.5 °F 0.9 °F 5.9 °F 78% 30.34 in 10.0 mi NW 6.9 mph - N/A   Clear
5:55 AM 14.7 °F 4.8 °F 8.8 °F 77% 30.35 in 10.0 mi NNW 6.9 mph - N/A   Clear
6:15 AM 14.9 °F 7.5 °F 8.8 °F 77% 30.37 in 10.0 mi North 4.6 mph - N/A   Clear
6:35 AM 14.7 °F 5.9 °F 8.6 °F 77% 30.37 in 10.0 mi NNW 5.8 mph - N/A   Clear
6:55 AM 14.9 °F 6.1 °F 8.8 °F 77% 30.38 in 10.0 mi NNW 5.8 mph - N/A   Clear
7:15 AM 14.9 °F 5.0 °F 9.3 °F 79% 30.40 in 10.0 mi WNW 6.9 mph - N/A   Clear
7:35 AM 18.1 °F 11.3 °F 11.1 °F 74% 30.40 in 10.0 mi NNW 4.6 mph - N/A   Clear
7:55 AM 15.6 °F 8.3 °F 10.2 °F 79% 30.41 in 10.0 mi NNW 4.6 mph - N/A   Clear
8:15 AM 19.9 °F - 12.7 °F 74% 30.43 in 10.0 mi Calm Calm - N/A   Clear
8:35 AM 25.2 °F 20.9 °F 15.4 °F 67% 30.43 in 10.0 mi SSW 3.5 mph - N/A   Clear
8:55 AM 29.1 °F 25.4 °F 17.1 °F 61% 30.43 in 10.0 mi NNW 3.5 mph - N/A   Clear
9:15 AM 33.8 °F 28.6 °F 17.6 °F 52% 30.42 in 10.0 mi North 5.8 mph - N/A   Clear
9:35 AM 36.0 °F 32.1 °F 17.4 °F 47% 30.43 in 10.0 mi North 4.6 mph - N/A   Clear
9:55 AM 39.6 °F 34.7 °F 17.6 °F 41% 30.41 in 10.0 mi North 6.9 mph - N/A   Clear
10:15 AM 42.1 °F 37.7 °F 17.4 °F 37% 30.41 in 10.0 mi NNE 6.9 mph - N/A   Clear
10:35 AM 45.1 °F - 16.3 °F 32% 30.41 in 10.0 mi Calm Calm - N/A   Clear
11:15 AM 47.5 °F - 16.0 °F 28% 30.39 in 10.0 mi East 5.8 mph - N/A   Clear
11:35 AM 48.9 °F - 15.3 °F 26% 30.37 in 10.0 mi East 8.1 mph - N/A   Clear
11:55 AM 49.8 °F - 14.5 °F 25% 30.36 in 10.0 mi ENE 9.2 mph - N/A   Clear
12:15 PM 49.8 °F - 13.6 °F 24% 30.33 in 10.0 mi East 5.8 mph - N/A   Clear
12:35 PM 50.0 °F - 12.0 °F 22% 30.32 in 10.0 mi NNE 8.1 mph - N/A   Clear
12:55 PM 51.1 °F - 10.8 °F 20% 30.31 in 10.0 mi NNE 5.8 mph 9.2 mph N/A   Clear
1:15 PM 50.4 °F - 10.2 °F 20% 30.29 in 10.0 mi Calm Calm - N/A   Clear
1:35 PM 51.4 °F - 10.0 °F 19% 30.29 in 10.0 mi East 4.6 mph - N/A   Clear
1:55 PM 51.8 °F - 9.3 °F 18% 30.28 in 10.0 mi NE 4.6 mph - N/A   Clear
2:15 PM 51.8 °F - 9.9 °F 19% 30.27 in 10.0 mi ENE 8.1 mph - N/A   Clear
2:35 PM 51.3 °F - 10.9 °F 20% 30.27 in 10.0 mi NE 6.9 mph - N/A   Clear
2:55 PM 51.8 °F - 11.1 °F 20% 30.26 in 10.0 mi NE 6.9 mph - N/A   Clear
3:15 PM 51.1 °F - 12.0 °F 21% 30.26 in 10.0 mi NE 5.8 mph - N/A   Clear
3:35 PM 50.9 °F - 12.0 °F 21% 30.26 in 10.0 mi North 4.6 mph - N/A   Clear
3:55 PM 50.5 °F - 11.8 °F 21% 30.25 in 10.0 mi Calm Calm - N/A   Clear
4:15 PM 50.0 °F - 11.7 °F 21% 30.24 in 10.0 mi North 3.5 mph - N/A   Clear
4:35 PM 47.8 °F - 11.8 °F 23% 30.23 in 10.0 mi NNW 5.8 mph - N/A   Clear
4:55 PM 44.1 °F 40.8 °F 10.9 °F 26% 30.22 in 10.0 mi NNW 5.8 mph - N/A   Clear
5:15 PM 39.6 °F 35.4 °F 10.6 °F 30% 30.23 in 10.0 mi North 5.8 mph - N/A   Clear
5:35 PM 34.3 °F 28.4 °F 9.5 °F 36% 30.22 in 10.0 mi NNE 6.9 mph - N/A   Clear
5:55 PM 32.0 °F 27.5 °F 9.9 °F 40% 30.22 in 10.0 mi NNE 4.6 mph - N/A   Clear
6:15 PM 30.7 °F 26.0 °F 9.5 °F 41% 30.23 in 10.0 mi NNE 4.6 mph - N/A   Clear
6:35 PM 28.2 °F 24.4 °F 9.1 °F 45% 30.23 in 10.0 mi North 3.5 mph - N/A   Clear
6:55 PM 26.8 °F 22.8 °F 8.2 °F 46% 30.23 in 10.0 mi NNE 3.5 mph - N/A   Clear
7:15 PM 26.8 °F 21.4 °F 8.4 °F 46% 30.22 in 10.0 mi North 4.6 mph - N/A   Clear
7:35 PM 23.7 °F - 7.3 °F 50% 30.23 in 10.0 mi Calm Calm - N/A   Clear
7:55 PM 22.5 °F 16.3 °F 7.9 °F 54% 30.23 in 10.0 mi North 4.6 mph - N/A   Clear
8:15 PM 22.3 °F 17.6 °F 8.1 °F 54% 30.22 in 10.0 mi North 3.5 mph - N/A   Clear
8:35 PM 21.2 °F 16.4 °F 7.7 °F 56% 30.21 in 10.0 mi NNE 3.5 mph - N/A   Clear
8:55 PM 21.6 °F - 8.2 °F 57% 30.21 in 10.0 mi Calm Calm - N/A   Clear
9:15 PM 21.2 °F 12.6 °F 8.8 °F 59% 30.21 in 10.0 mi NW 6.9 mph - N/A   Clear
9:35 PM 22.3 °F 14.9 °F 9.5 °F 58% 30.20 in 10.0 mi NW 5.8 mph - N/A   Clear
9:55 PM 19.8 °F 13.2 °F 8.4 °F 61% 30.20 in 10.0 mi ENE 4.6 mph - N/A   Clear
10:15 PM 18.7 °F 9.5 °F 8.1 °F 63% 30.20 in 10.0 mi NE 6.9 mph - N/A   Clear
10:35 PM 16.7 °F 8.3 °F 7.9 °F 68% 30.19 in 10.0 mi North 5.8 mph - N/A   Clear
10:55 PM 14.9 °F 6.1 °F 6.8 °F 70% 30.19 in 10.0 mi NW 5.8 mph - N/A   Clear
11:15 PM 16.2 °F - 8.6 °F 72% 30.19 in 10.0 mi Calm Calm - N/A   Clear
11:35 PM 16.0 °F 10.4 °F 7.0 °F 68% 30.17 in 10.0 mi NNW 3.5 mph - N/A   Clear
11:55 PM 12.6 °F 2.2 °F 5.7 °F 74% 30.16 in 10.0 mi NE 6.9 mph - N/A   Clear